Theta_e
347 344 343 342 340 334 330 330 332 337 343 342 334 332 332 332 333 334 336 337 336 335 335 335 336 336 334 331 332 331 332 333 334 334 333 335 335 335 332 337 339 340 331
345 345 344 339 334 329 326 325 329 333 330 337 341 336 335 336 334 334 336 335 335 334 334 335 336 336 335 332 331 331 332 333 335 336 334 331 331 331 330 336 338 334 327
345 345 344 333 330 327 325 326 331 339 340 330 330 335 340 338 336 329 335 334 340 336 333 333 335 336 335 334 332 331 334 333 333 338 344 343 341 330 326 335 336 336 336
345 345 345 331 329 328 325 326 326 327 327 329 335 340 340 335 335 338 340 342 336 333 332 332 342 336 335 334 334 335 335 334 333 342 344 344 343 336 334 330 330 338 338
345 345 342 331 329 328 326 326 326 326 326 326 328 331 335 337 340 330 339 341 342 333 335 331 337 337 335 334 334 340 339 334 337 344 344 344 344 337 335 336 335 330 339
344 344 334 331 329 328 328 327 330 330 327 326 327 334 342 341 336 341 337 339 336 334 332 332 332 336 338 338 340 339 337 336 343 344 344 343 347 334 335 334 333 331 333
343 344 334 330 330 329 328 331 334 334 332 328 326 329 339 339 341 342 336 342 341 333 342 341 332 337 331 340 335 333 332 334 343 344 343 343 344 332 331 334 328 328 331
341 342 345 330 329 329 331 336 337 337 336 335 329 327 332 340 340 342 337 339 342 342 335 341 339 342 331 331 329 336 331 333 342 342 341 341 329 329 325 324 327 332 332
341 343 344 342 329 333 337 341 338 338 337 337 335 328 327 332 339 338 341 339 336 339 342 339 334 341 339 337 340 336 335 337 346 343 341 339 323 328 332 323 322 326 335
340 343 344 345 346 348 348 342 342 340 340 340 338 331 327 330 333 337 340 339 337 341 337 339 341 329 337 340 340 339 337 338 346 346 344 345 333 329 328 327 324 322 326
342 344 344 345 348 349 348 347 342 341 342 340 336 334 338 345 346 345 340 338 337 338 339 335 336 337 331 332 339 340 339 343 344 345 345 344 339 336 335 329 326 325 324
343 344 345 346 347 348 347 348 345 348 348 339 335 332 340 342 345 345 344 341 336 336 339 336 335 335 336 345 345 336 340 341 343 342 341 341 337 337 339 339 333 332 327
342 344 346 347 348 347 347 346 345 345 343 333 339 340 344 342 343 348 348 347 346 340 345 345 346 344 346 346 346 345 345 345 345 343 341 337 335 339 339 338 341 342 339
343 345 346 348 348 347 346 345 345 345 345 341 341 342 342 344 344 346 346 347 346 347 347 347 347 348 346 347 346 346 346 345 344 344 344 342 333 339 336 339 341 341 341
345 347 347 348 347 347 345 345 345 346 348 346 341 341 343 349 344 343 343 342 348 349 348 347 348 349 348 348 349 348 346 345 345 345 346 345 337 335 336 340 341 340 341
347 349 349 349 347 342 339 339 345 347 350 348 345 343 343 343 343 343 343 344 348 350 347 345 345 345 346 351 350 350 349 347 347 348 347 346 342 340 342 343 342 341 339
349 350 349 349 348 338 335 343 347 349 349 350 346 343 345 345 344 343 343 343 344 344 345 345 347 349 347 351 351 350 350 349 348 349 349 348 349 344 342 343 341 342 341
350 349 351 346 347 346 346 347 349 351 353 352 354 349 347 345 344 343 344 344 345 344 346 344 349 348 349 350 348 352 349 349 349 349 350 349 349 349 349 344 343 344 343
350 346 349 348 347 348 346 347 350 351 351 351 351 351 351 345 344 346 348 347 345 347 344 349 350 350 345 350 345 350 351 351 350 348 347 349 349 349 347 349 346 344 345
352 347 351 346 343 347 350 347 351 352 351 352 351 351 346 350 345 345 351 348 347 348 345 350 345 350 345 349 347 350 352 353 351 351 350 349 349 349 350 349 350 350 347
353 351 346 349 346 347 351 349 347 348 351 351 351 351 346 346 346 346 350 351 348 349 345 344 349 347 349 348 348 348 350 351 352 353 353 352 350 351 350 350 353 352 352
352 353 347 345 346 346 352 352 351 351 351 351 351 349 348 347 347 350 348 352 346 350 351 346 348 348 347 348 348 349 349 350 352 352 351 352 352 351 351 352 354 354 354
351 347 347 347 347 347 349 353 350 351 350 352 351 350 350 346 346 346 348 347 347 347 348 348 351 352 347 347 351 348 346 351 349 348 353 353 353 352 352 353 354 355 355
352 350 346 346 348 352 348 353 352 352 351 352 351 352 351 350 347 344 345 346 348 348 347 350 351 350 351 349 346 347 349 349 348 348 350 350 352 351 351 350 352 353 354
351 351 349 341 344 347 347 349 352 353 351 353 354 354 352 347 346 346 345 344 345 347 350 348 348 350 348 351 351 350 350 350 350 350 345 348 351 350 350 351 350 351 352
351 351 346 344 338 342 346 349 347 343 346 352 354 354 353 352 353 353 353 350 343 348 349 346 348 348 348 349 351 346 347 347 348 347 347 345 346 348 349 350 349 350 350
Wind_Speed
17 17 17 15 17 17 17 17 16 15 15 14 13 12 12 11 10 10 11 12 12 13 14 17 18 17 17 19 21 20 18 18 19 21 24 21 16 17 17 19 16 14 14
21 18 19 17 18 17 16 15 15 13 13 13 12 11 10 9 9 9 9 10 11 11 12 12 14 15 16 16 16 16 16 17 18 20 20 19 17 15 14 17 16 16 15
21 19 19 17 17 16 14 14 14 12 11 11 10 10 9 9 9 8 8 10 11 10 10 11 12 13 15 15 14 13 14 14 17 21 22 14 14 16 15 16 15 16 16
21 19 17 18 16 15 13 12 12 11 10 9 7 8 7 7 7 8 9 10 8 9 10 11 12 12 13 14 14 14 14 14 16 18 15 13 11 15 15 14 14 14 14
20 18 17 17 15 12 12 10 10 9 9 8 7 6 5 4 6 6 8 9 8 7 8 10 12 10 11 12 13 13 13 14 15 13 12 11 9 10 11 12 11 12 13
19 17 17 16 14 11 10 9 7 7 7 7 6 6 5 4 4 5 8 6 6 6 8 9 10 11 11 12 12 11 12 12 14 9 8 13 8 7 10 9 10 11 11
18 15 16 14 12 10 9 8 6 6 5 5 5 5 5 5 4 4 7 5 5 6 8 7 9 9 11 11 11 11 11 12 8 8 7 7 5 7 8 7 9 9 9
16 14 13 13 11 10 9 6 5 4 3 3 3 4 4 5 4 4 5 6 4 5 6 7 7 7 10 10 11 10 10 10 5 6 6 7 4 7 7 6 7 7 7
14 13 12 11 11 10 7 4 3 2 1 1 2 2 1 2 3 2 3 3 4 5 4 5 7 8 9 10 7 7 5 7 5 4 4 5 5 6 7 6 6 6 6
13 12 11 11 9 7 3 4 2 2 2 1 1 2 1 2 2 0 1 2 3 3 4 6 5 7 9 9 9 8 5 5 5 5 3 6 5 5 5 5 6 5 4
13 11 11 9 9 8 7 5 4 3 3 3 2 1 3 2 2 1 5 5 5 4 4 4 5 6 7 8 10 10 8 4 7 6 6 11 7 7 5 5 5 5 5
13 12 11 10 7 6 4 5 5 1 5 4 4 5 2 1 3 2 4 5 6 6 6 7 7 8 7 5 9 12 10 9 10 10 9 12 8 8 9 8 7 6 7
12 11 11 10 9 6 6 4 3 3 10 3 3 5 6 5 3 2 3 3 5 6 3 8 7 6 7 9 10 10 10 11 11 10 11 17 14 11 9 13 12 11 11
12 11 10 9 8 8 6 4 5 3 4 1 1 3 2 2 1 3 3 4 2 4 7 7 8 11 10 11 12 12 12 12 11 11 12 17 15 15 12 12 13 13 13
10 10 9 10 10 8 8 6 5 5 3 3 3 4 2 1 2 2 4 4 5 5 6 7 9 10 12 10 11 12 12 11 12 11 11 17 14 15 13 14 14 14 15
9 9 9 10 10 8 7 7 6 5 4 5 3 4 1 4 4 5 4 2 3 5 9 10 10 11 9 8 11 11 12 11 11 13 10 11 11 11 11 13 13 13 14
7 8 9 9 10 10 9 6 5 4 4 3 4 5 2 2 2 6 5 4 2 2 6 5 4 6 6 8 10 10 11 12 11 11 10 10 10 12 13 13 12 14 15
9 9 8 8 10 10 9 8 6 5 5 4 4 6 5 5 4 4 4 3 2 4 6 4 5 5 6 7 6 8 9 11 11 12 11 12 12 11 14 14 14 12 13
9 8 8 10 10 9 10 9 8 7 6 5 5 4 4 2 3 1 4 6 4 5 5 4 5 6 7 6 6 6 9 11 12 12 13 14 14 14 12 14 16 15 16
11 9 8 9 13 11 10 10 8 7 6 5 5 4 4 4 6 4 4 4 7 8 4 5 6 5 7 6 8 8 9 10 12 12 13 14 14 15 14 15 16 15 16
12 12 11 12 14 13 11 11 11 9 6 6 6 8 6 7 8 11 6 7 7 7 10 9 8 8 6 7 9 7 8 8 9 11 13 13 13 14 15 15 15 14 15
16 16 16 15 16 15 12 11 8 8 7 7 7 8 8 8 7 7 8 10 10 8 11 10 9 8 8 7 5 9 5 4 6 6 9 13 14 14 14 14 16 15 14
17 19 19 17 16 14 13 11 9 9 10 8 8 7 7 9 10 10 11 13 14 14 13 13 10 10 9 10 10 7 6 2 5 6 7 7 10 11 13 15 16 16 17
15 16 17 16 17 14 14 11 10 10 10 8 9 10 10 11 12 13 13 15 15 16 17 15 13 13 13 12 11 12 12 11 9 5 5 6 7 8 9 11 15 15 15
12 12 16 18 14 14 12 11 8 8 12 10 12 13 13 15 18 17 17 18 17 18 17 20 22 19 16 15 14 14 14 10 10 10 13 9 6 9 10 7 8 11 13
9 11 14 15 11 10 13 12 13 10 9 8 10 11 12 13 14 17 17 18 19 19 19 19 20 20 19 18 18 19 18 14 11 13 13 13 14 12 12 10 10 10 10
Wind_Direction
147 148 141 138 134 125 114 108 104 103 99 96 101 114 116 107 97 97 93 97 96 91 98 102 103 110 108 105 106 110 109 105 101 95 97 119 120 115 105 90 82 100 101
147 147 141 143 130 124 117 113 104 97 102 101 101 103 103 101 96 95 95 103 104 98 95 107 109 110 118 116 112 110 109 107 107 100 93 97 105 106 104 117 119 103 113
145 150 146 140 132 126 119 115 111 109 102 104 107 107 104 99 93 98 100 106 105 103 105 111 115 120 117 121 122 116 111 111 108 96 89 91 100 99 103 109 105 103 104
148 146 149 141 137 128 121 114 110 107 99 96 98 102 101 108 113 96 96 107 106 104 114 116 116 122 123 123 120 118 115 113 111 95 100 103 106 98 99 97 100 101 100
147 147 155 144 140 132 126 119 110 104 99 95 92 95 95 96 97 116 109 108 102 111 121 122 125 122 130 127 125 122 123 118 109 91 109 108 105 97 93 98 91 106 112
150 148 155 150 148 140 134 128 116 105 101 90 89 91 81 85 115 111 118 108 119 109 114 127 137 138 138 134 135 135 132 122 90 115 118 125 130 115 103 108 114 117 117
150 159 160 161 158 152 146 140 128 114 100 88 78 79 82 80 117 119 129 133 124 112 119 133 140 135 143 146 146 135 131 128 125 128 132 116 150 123 109 116 119 116 114
153 158 166 167 168 161 153 152 143 132 107 79 69 64 79 91 99 129 132 159 150 136 133 141 143 155 153 150 146 138 134 128 98 137 142 126 164 127 126 133 126 124 124
161 160 164 166 171 166 164 167 164 162 152 84 45 50 68 80 99 130 140 141 165 171 167 158 177 175 175 174 180 172 178 166 137 165 141 134 158 154 145 137 132 143 139
172 171 167 167 171 166 218 212 201 225 237 209 345 359 9 38 5 99 152 225 193 199 186 191 189 191 197 202 204 205 200 171 161 209 197 210 200 188 176 166 162 167 172
180 181 174 183 178 183 187 269 232 241 243 255 294 312 319 192 236 345 255 237 218 205 227 223 219 217 218 224 231 228 233 227 245 247 221 243 223 210 215 214 202 199 202
184 190 185 183 193 199 205 213 269 231 262 277 288 291 324 249 231 210 291 265 243 236 236 236 234 235 235 230 275 258 244 240 237 238 240 242 236 233 242 232 223 224 226
188 194 193 193 195 201 212 219 222 236 247 252 297 292 257 276 241 275 289 313 254 251 237 274 268 264 240 231 234 240 241 246 252 252 244 253 240 243 261 235 241 252 243
193 198 200 204 197 195 218 223 225 218 266 207 9 33 26 326 235 294 255 233 264 246 240 251 247 249 232 241 241 243 251 249 248 252 255 268 247 247 250 243 250 257 253
198 204 203 204 206 204 208 222 225 221 235 248 234 2 86 301 306 306 316 277 259 258 262 263 260 260 253 249 250 257 252 248 251 251 256 269 259 247 243 246 250 253 253
195 206 206 207 211 217 219 221 221 216 210 250 273 305 339 96 85 24 359 353 276 267 263 264 262 269 267 246 253 247 255 258 259 254 250 263 272 242 242 249 254 255 255
202 201 209 208 212 217 221 210 211 210 249 262 293 306 293 313 305 323 22 13 42 309 330 329 292 280 284 271 258 246 255 256 251 256 254 247 260 270 262 261 258 256 256
210 211 206 207 209 214 211 213 207 223 233 231 239 301 289 304 303 306 312 6 5 336 345 343 316 316 290 261 236 254 257 249 254 250 249 246 256 253 272 274 264 265 263
232 218 210 207 205 208 216 213 220 235 250 250 249 259 284 302 297 266 329 297 293 306 332 314 294 311 314 290 290 270 260 252 252 254 247 246 249 252 247 261 274 267 266
224 214 194 202 213 211 213 215 221 227 241 252 242 253 272 282 287 303 275 288 274 281 289 286 312 321 302 281 286 286 273 265 257 249 247 249 249 247 251 250 262 274 271
214 207 203 202 203 204 211 221 225 218 243 248 245 250 258 260 277 274 262 268 295 273 281 290 297 304 298 284 311 307 284 284 257 252 251 248 245 247 247 249 253 253 260
204 200 200 200 201 209 208 209 212 229 223 236 244 253 254 270 270 281 273 264 277 266 279 280 290 273 283 285 293 308 297 274 271 251 259 250 244 247 252 253 249 252 249
200 202 204 202 199 202 202 211 224 229 239 252 257 261 256 268 278 274 270 269 269 266 262 272 273 271 271 270 271 265 289 233 300 257 278 252 233 236 253 260 247 249 251
206 205 203 204 204 207 213 212 221 228 242 246 247 256 250 265 270 272 271 271 272 276 269 267 271 259 257 270 267 268 262 267 280 278 282 251 234 244 258 266 246 250 251
204 203 198 207 205 214 209 212 227 259 264 258 254 264 274 274 282 269 268 267 270 269 270 266 266 270 272 263 261 262 254 263 273 267 284 278 243 262 264 273 243 244 252
190 184 199 196 181 193 202 215 228 248 287 267 267 269 280 282 286 277 268 269 267 264 269 276 273 276 273 264 264 268 268 256 260 264 265 269 272 277 271 268 261 250 247